RYR3PJ EBCI-LFPG

Flight info

Callsign RYR3PJ
Flight time 0h 36m
Altitude 18000
Route MEDIL5Y MEDIL DCT PITHI DCT LESDO DCT KOVIN DCT
Aircraft B738/M-SDE2E3FGHIRWXY/LB1

Departure

Time 2026-05-01 14:30
Airport Brussels South Charleroi Airport (EBCI)

Arrival

Time 2026-05-01 15:07
Airport Charles de Gaulle International Airport (LFPG)
Time Latitude Longitude Altitude Speed Heading
2026-05-01 14:13 50.46959 4.47400 561 ft 0 kts 334°
2026-05-01 14:23 50.46949 4.47408 561 ft 2 kts 334°
2026-05-01 14:23 50.46935 4.47418 561 ft 2 kts 334°
2026-05-01 14:23 50.46921 4.47429 561 ft 2 kts 339°
2026-05-01 14:23 50.46907 4.47428 561 ft 2 kts 26°
2026-05-01 14:24 50.46898 4.47415 561 ft 0 kts 60°
2026-05-01 14:24 50.46895 4.47406 561 ft 0 kts 66°
2026-05-01 14:24 50.46894 4.47403 561 ft 0 kts 65°
2026-05-01 14:28 50.46905 4.47443 560 ft 10 kts 65°
2026-05-01 14:28 50.46924 4.47596 558 ft 14 kts 128°
2026-05-01 14:29 50.46844 4.47654 559 ft 12 kts 153°
2026-05-01 14:29 50.46767 4.47713 562 ft 14 kts 157°
2026-05-01 14:30 50.46090 4.45626 812 ft 186 kts 242°
2026-05-01 14:30 50.45528 4.43960 2382 ft 179 kts 240°
2026-05-01 14:30 50.45004 4.42211 3342 ft 192 kts 245°
2026-05-01 14:31 50.43924 4.37901 3990 ft 230 kts 245°
2026-05-01 14:31 50.43271 4.35542 3976 ft 234 kts 244°
2026-05-01 14:31 50.42607 4.33227 3978 ft 235 kts 243°
2026-05-01 14:31 50.41911 4.30821 4212 ft 251 kts 243°
2026-05-01 14:32 50.41169 4.28249 4623 ft 264 kts 244°
2026-05-01 14:32 50.40422 4.25634 5032 ft 269 kts 244°
2026-05-01 14:32 50.39660 4.22926 5443 ft 269 kts 247°
2026-05-01 14:32 50.39129 4.20109 5869 ft 272 kts 258°
2026-05-01 14:33 50.38868 4.17206 6294 ft 272 kts 263°
2026-05-01 14:33 50.38669 4.14265 6735 ft 273 kts 262°
2026-05-01 14:33 50.38444 4.11313 7344 ft 277 kts 261°
2026-05-01 14:33 50.38188 4.08354 7952 ft 280 kts 260°
2026-05-01 14:34 50.37901 4.05287 8634 ft 295 kts 259°
2026-05-01 14:34 50.37599 4.02156 10074 ft 297 kts 259°
2026-05-01 14:34 50.37296 3.99021 11496 ft 297 kts 258°
2026-05-01 14:34 50.36990 3.95854 12844 ft 299 kts 258°
2026-05-01 14:35 50.36676 3.92617 13898 ft 311 kts 258°
2026-05-01 14:35 50.36356 3.89230 14689 ft 331 kts 258°
2026-05-01 14:35 50.36026 3.85563 15382 ft 353 kts 259°
2026-05-01 14:35 50.35699 3.81675 16115 ft 373 kts 260°
2026-05-01 14:36 50.35384 3.77605 16911 ft 386 kts 261°
2026-05-01 14:36 50.35092 3.73383 17656 ft 392 kts 262°
2026-05-01 14:36 50.34839 3.69133 18523 ft 402 kts 263°
2026-05-01 14:36 50.34670 3.65781 19603 ft 398 kts 264°
2026-05-01 14:37 50.34491 3.61553 20938 ft 390 kts 263°
2026-05-01 14:37 50.33942 3.57303 20623 ft 417 kts 248°
2026-05-01 14:37 50.32539 3.53255 20186 ft 422 kts 231°
2026-05-01 14:37 50.30477 3.50107 19745 ft 416 kts 214°
2026-05-01 14:38 50.27946 3.48097 19314 ft 408 kts 197°
2026-05-01 14:38 50.25182 3.47444 19171 ft 401 kts 179°
2026-05-01 14:38 50.22419 3.47798 19166 ft 403 kts 172°
2026-05-01 14:38 50.19649 3.48516 19169 ft 401 kts 169°
2026-05-01 14:39 50.16896 3.49320 19169 ft 403 kts 170°
2026-05-01 14:39 50.14153 3.49840 19168 ft 402 kts 175°
2026-05-01 14:39 50.11340 3.49896 19172 ft 404 kts 182°
2026-05-01 14:39 50.08571 3.49338 19170 ft 405 kts 190°
2026-05-01 14:40 50.05857 3.48233 19172 ft 406 kts 196°
2026-05-01 14:40 50.03183 3.46772 19171 ft 408 kts 199°
2026-05-01 14:40 50.00531 3.45109 19171 ft 408 kts 201°
2026-05-01 14:40 49.97951 3.43384 19172 ft 409 kts 202°
2026-05-01 14:41 49.95338 3.41593 19172 ft 408 kts 202°
2026-05-01 14:41 49.92757 3.39819 19175 ft 408 kts 202°
2026-05-01 14:41 49.90142 3.38037 19176 ft 407 kts 202°
2026-05-01 14:41 49.87622 3.36336 19179 ft 408 kts 201°
2026-05-01 14:42 49.85007 3.34584 19179 ft 407 kts 201°
2026-05-01 14:42 49.82446 3.32881 19177 ft 405 kts 200°
2026-05-01 14:42 49.79860 3.31169 19177 ft 406 kts 200°
2026-05-01 14:42 49.77239 3.29438 19177 ft 405 kts 200°
2026-05-01 14:43 49.74670 3.27745 19177 ft 405 kts 200°
2026-05-01 14:43 49.72069 3.26033 19177 ft 404 kts 200°
2026-05-01 14:43 49.69477 3.24329 19178 ft 406 kts 200°
2026-05-01 14:43 49.66919 3.22648 19177 ft 403 kts 200°
2026-05-01 14:44 49.64357 3.20965 19176 ft 404 kts 200°
2026-05-01 14:44 49.59195 3.17583 19178 ft 405 kts 200°
2026-05-01 14:44 49.56583 3.15874 19178 ft 405 kts 200°
2026-05-01 14:45 49.54020 3.14199 19176 ft 404 kts 200°
2026-05-01 14:45 49.48857 3.10830 19171 ft 402 kts 200°
2026-05-01 14:45 49.46285 3.09068 19130 ft 407 kts 205°
2026-05-01 14:46 49.44058 3.06534 18757 ft 400 kts 221°
2026-05-01 14:46 49.41437 2.99236 17737 ft 389 kts 248°
2026-05-01 14:46 49.40680 2.95297 17117 ft 388 kts 251°
2026-05-01 14:47 49.39990 2.91284 16456 ft 385 kts 252°
2026-05-01 14:47 49.39341 2.87378 15812 ft 381 kts 252°
2026-05-01 14:47 49.38691 2.83470 15163 ft 377 kts 252°
2026-05-01 14:48 49.37416 2.75817 13876 ft 368 kts 252°
2026-05-01 14:48 49.36788 2.72064 13235 ft 362 kts 252°
2026-05-01 14:48 49.35551 2.64743 12194 ft 343 kts 252°
2026-05-01 14:49 49.34357 2.57789 12089 ft 337 kts 252°
2026-05-01 14:49 49.33199 2.51108 11143 ft 315 kts 252°
2026-05-01 14:50 49.32474 2.46956 10503 ft 294 kts 252°
2026-05-01 14:50 49.31053 2.39034 9202 ft 287 kts 252°
2026-05-01 14:51 49.30517 2.36107 8714 ft 286 kts 252°
2026-05-01 14:51 49.29450 2.30338 7668 ft 283 kts 252°
2026-05-01 14:52 49.28392 2.24704 6410 ft 276 kts 251°
2026-05-01 14:52 49.27866 2.21910 5799 ft 274 kts 252°
2026-05-01 14:52 49.26833 2.16413 4581 ft 262 kts 252°
2026-05-01 14:53 49.26340 2.13813 4116 ft 251 kts 252°
2026-05-01 14:53 49.25869 2.11339 3981 ft 238 kts 252°
2026-05-01 14:53 49.25404 2.08915 3982 ft 235 kts 252°
2026-05-01 14:53 49.24951 2.06565 3987 ft 234 kts 252°
2026-05-01 14:54 49.24487 2.04159 3981 ft 233 kts 252°
2026-05-01 14:54 49.24048 2.01883 3970 ft 217 kts 252°
2026-05-01 14:54 49.23626 1.99683 3975 ft 214 kts 252°
2026-05-01 14:54 49.23208 1.97510 3985 ft 214 kts 252°
2026-05-01 14:55 49.22785 1.95308 3978 ft 213 kts 251°
2026-05-01 14:55 49.22140 1.93311 3974 ft 209 kts 226°
2026-05-01 14:55 49.20929 1.92174 3975 ft 206 kts 193°
2026-05-01 14:55 49.19517 1.91948 3986 ft 204 kts 181°
2026-05-01 14:56 49.18095 1.91862 3973 ft 205 kts 181°
2026-05-01 14:56 49.16671 1.91768 3976 ft 205 kts 182°
2026-05-01 14:56 49.15242 1.91672 3980 ft 205 kts 182°
2026-05-01 14:56 49.13826 1.91588 3979 ft 204 kts 179°
2026-05-01 14:57 49.12461 1.92091 3985 ft 204 kts 155°
2026-05-01 14:57 49.09966 1.94155 3979 ft 205 kts 152°
2026-05-01 14:57 49.08707 1.95199 3978 ft 206 kts 152°
2026-05-01 14:58 49.07456 1.96233 3983 ft 208 kts 152°
2026-05-01 14:58 49.06184 1.97282 3986 ft 207 kts 152°
2026-05-01 14:58 49.04910 1.98332 3985 ft 207 kts 152°
2026-05-01 14:58 49.03662 1.99360 3986 ft 208 kts 152°
2026-05-01 14:59 49.02437 2.00369 3991 ft 191 kts 152°
2026-05-01 14:59 49.01290 2.01317 3984 ft 185 kts 152°
2026-05-01 14:59 49.00211 2.02339 3984 ft 185 kts 140°
2026-05-01 14:59 48.99480 2.03953 3987 ft 187 kts 114°
2026-05-01 15:00 48.99397 2.07919 3980 ft 192 kts 85°
2026-05-01 15:00 48.99557 2.09950 3983 ft 193 kts 85°
2026-05-01 15:00 48.99726 2.11947 3987 ft 194 kts 81°
2026-05-01 15:01 49.00099 2.13922 3986 ft 194 kts 76°
2026-05-01 15:01 49.00391 2.15922 3984 ft 193 kts 83°
2026-05-01 15:01 49.00548 2.17950 3984 ft 193 kts 87°
2026-05-01 15:01 49.00666 2.19986 3984 ft 193 kts 87°
2026-05-01 15:02 49.00781 2.22008 3985 ft 193 kts 87°
2026-05-01 15:02 49.00860 2.23378 3983 ft 193 kts 87°
2026-05-01 15:02 49.01014 2.26084 3735 ft 195 kts 87°
2026-05-01 15:02 49.01128 2.28107 3461 ft 191 kts 87°
2026-05-01 15:03 49.01240 2.30096 3205 ft 191 kts 87°
2026-05-01 15:03 49.01353 2.32132 2944 ft 191 kts 87°
2026-05-01 15:03 49.01462 2.34070 2741 ft 182 kts 86°
2026-05-01 15:03 49.01566 2.35932 2453 ft 170 kts 87°
2026-05-01 15:04 49.01661 2.37652 2270 ft 159 kts 87°
2026-05-01 15:04 49.01755 2.39360 2028 ft 157 kts 87°
2026-05-01 15:04 49.01842 2.40918 1821 ft 146 kts 87°
2026-05-01 15:04 49.01923 2.42413 1646 ft 142 kts 87°
2026-05-01 15:05 49.02004 2.43906 1469 ft 144 kts 87°
2026-05-01 15:05 49.02087 2.45419 1280 ft 141 kts 87°
2026-05-01 15:05 49.02168 2.46898 1101 ft 139 kts 87°
2026-05-01 15:05 49.02248 2.48396 915 ft 139 kts 87°
2026-05-01 15:06 49.02328 2.49867 749 ft 143 kts 87°
2026-05-01 15:06 49.02423 2.51425 556 ft 153 kts 88°
2026-05-01 15:06 49.02503 2.53019 393 ft 142 kts 87°
2026-05-01 15:06 49.02568 2.54323 377 ft 103 kts 84°
2026-05-01 15:07 49.02607 2.55030 375 ft 37 kts 89°
2026-05-01 15:07 49.02579 2.55246 377 ft 17 kts 110°
2026-05-01 15:07 49.02531 2.55411 377 ft 17 kts 115°
2026-05-01 15:07 49.02496 2.55516 377 ft 2 kts 116°
2026-05-01 15:08 49.02491 2.55531 377 ft 0 kts 116°
2026-05-01 15:08 49.02486 2.55546 377 ft 0 kts 116°
2026-05-01 15:08 49.02480 2.55564 377 ft 4 kts 117°
2026-05-01 15:08 49.02452 2.55610 378 ft 7 kts 156°
2026-05-01 15:09 49.02379 2.55617 377 ft 9 kts 173°
2026-05-01 15:09 49.02317 2.55628 376 ft 9 kts 174°
2026-05-01 15:09 49.02238 2.55638 375 ft 12 kts 174°
2026-05-01 15:09 49.02142 2.55651 373 ft 15 kts 175°
2026-05-01 15:10 49.02029 2.55664 371 ft 17 kts 175°
2026-05-01 15:10 49.01878 2.55464 368 ft 17 kts 263°
2026-05-01 15:10 49.01868 2.55273 368 ft 18 kts 264°
2026-05-01 15:11 49.01855 2.55073 367 ft 19 kts 263°
2026-05-01 15:11 49.01752 2.54870 365 ft 16 kts 175°
2026-05-01 15:11 49.01667 2.54875 364 ft 17 kts 176°
2026-05-01 15:12 49.01537 2.54893 361 ft 20 kts 175°
2026-05-01 15:12 49.01272 2.54967 356 ft 15 kts 165°
2026-05-01 15:12 49.01237 2.55092 354 ft 15 kts 87°
2026-05-01 15:13 49.01279 2.55471 352 ft 6 kts 341°
2026-05-01 15:14 49.01336 2.55467 354 ft 3 kts 353°
2026-05-01 15:14 49.01338 2.55466 355 ft 0 kts 353°